ROMMA est une association bénévole à but non lucratif. Votre soutien est indispensable : ADHERER à ROMMA ou FAIRE un DON

Chambon - (38, Isère)

Oisans (2460 m)   Longitude: 06° 10' 42" E   Latitude: 45° 01' 32" N Station partenaire n°803
 

Détail journalier du     <<     >>

Température Humidité Vent Dir Rafale Dir. rafale Neige 1 Neige 2
Heure (°C) (%) (km/h) (km/h) (cm) (cm)
01:00 9.5962NNE24SE11
02:00 9.4906SE29SSO12
03:00 9.4907SSO25SSO20
04:00 11.27615SO38SO10
05:00 9.98414SO34SO10
06:00 8.8918SSO28SSO10
07:00 10.1817SSO44SSO11
08:00 10.37622S101SSO31
09:00 7.99621SSO93SSO00
10:00 9.27823S74SO11
11:00 11.07220S61S21
12:00 12.66518S57S21
13:00 11.56920SO44OSO31
14:00 9.58714SO41SO01
15:00 11.08510SO29SO31
16:00 9.59013OSO28OSO40
17:00 6.29917OSO29OSO00
18:00 5.49916OSO31OSO00
19:00 6.07917SO30SO40
20:00 5.48415SO27SO10
21:00 4.68818OSO30OSO00
22:00 4.18515SO27SO00
23:00 3.97915SSO23SO00
minuit 3.48612SO20SO00

Graphique du 12-08-2019

 

Serveur OMMA